Voltar ao catálogo

FENGYUN 1C DEB

AtivoSSO
NORAD 31068·DEBRIS·🇨🇳 China

Lançado May 10, 1999 de Taiyuan Satellite Launch Center

Loading…

Próximas Passagens (próximas 24 horas)

TLE

AtualizadoSource: Space-Track

Época: Sep 11, 2026, 03:52 UTC

1 31068U 99025BFN 26254.16161972  .00000293  00000-0  16838-3 0  9998
2 31068  98.6592 230.5556 0165595  65.5823 296.2526 14.09393570    19

Acompanhe FENGYUN 1C DEB em tempo real com AllMySat

Download on the App Store